Location: Beadle
(51.4667°N, 109.0000°W)
Time: 04:02:06
(UTC+00:00)

Altair - Pass Details

Date: 05 June 2022
Orbit: 1501 x 1682 km, 47.2° (Epoch: 30 June)

Event Time Altitude Azimuth Distance (km) Brightness Sun altitude
Rises 03:08:16 0° 287° (WNW) 4,902 11.8 1.5°
Reaches altitude 10° 03:11:42 10° 279° (W) 3,928 10.9 1.0°
Maximum altitude 03:20:34 37° 218° (SW) 2,420 8.6 -0.1°
Drops below altitude 10° 03:29:27 10° 156° (SSE) 3,928 9.1 -1.1°
Sets 03:32:54 0° 148° (SSE) 4,902 9.5 -1.5°
